#timestamp,LO_Frequency,Hit,StdDev 
1532692815.3,286047002.0,N
1532692835.1,286047001.9,N
1532692855.9,286047004.4,Y
1532692875.7,286047002.8,P
1532692895.6,286047002.3,N
1532692915.4,286046999.8,N
1532692935.2,286047002.8,N
1532692955.1,286047002.8,N
1532692956.0,286047002.8,N
1532692975.8,286047002.7,N
1532692995.7,286047000.3,N
1532693015.5,286046998.1,N
1532693035.3,286046998.7,N
1532693055.2,286046999.2,N
1532693075.9,286046996.6,N
1532693095.7,286046996.5,N
1532693115.6,286046999.5,N
1532693135.4,286046996.7,N
1532693155.2,286046997.9,N
1532693175.1,286046997.7,N
1532693176.0,286046997.7,N
1532693195.8,286046996.9,N
1532693215.7,286046996.7,N
1532693235.5,286046997.4,N
1532693255.3,286046997.6,N
1532693275.2,286046995.1,N
1532693295.0,286046996.0,N
1532693295.9,286046996.0,N
1532693315.8,286046995.2,N
1532693335.6,286046998.0,N
1532693355.4,286046995.3,N
1532693375.3,286046997.2,N
1532693395.1,286046999.5,N
1532693396.0,286046999.5,N
1532693415.8,286046997.2,N
1532693435.7,286046999.6,N
1532693455.5,286046998.9,N
1532693475.3,286046999.5,N
1532693495.2,286046999.6,N
1532693515.0,286046999.4,N
1532693515.9,286046999.4,N
1532693535.8,286046999.9,N
1532693555.6,286047001.9,N
1532693575.4,286047004.2,N
1532693595.3,286047003.9,N
1532693615.1,286047003.0,N
1532693635.9,286047005.4,N
1532693655.7,286047005.9,N
1532693675.5,286047003.2,N
1532693695.4,286047006.0,N
1532693715.2,286047003.4,N
1532693735.0,286047003.7,N
1532693735.9,286047003.7,N
1532693755.8,286047004.2,N
1532693775.6,286047004.4,N
1532693795.5,286047005.4,N
1532693815.3,286047003.0,N
1532693835.1,286047003.9,N
1532693855.9,286047004.0,N
1532693875.7,286047002.6,N
1532693895.5,286047001.4,N
1532693915.4,286047001.7,N
1532693935.2,286047004.4,N
1532693955.1,286047001.8,N
1532693956.0,286047001.8,N
1532693975.8,286047001.6,N
1532693995.6,286047006.9,Y
1532694015.5,286047006.9,P
1532694035.3,286047007.0,P
1532694055.1,286047007.3,P
1532694075.9,286047004.9,N
1532694095.7,286047005.5,Y
1532694115.6,286046997.3,P
1532694135.4,286046995.2,N
1532694155.2,286046995.0,N
1532694175.1,286046995.0,N
1532694176.0,286046995.0,N
1532694195.8,286046995.7,N
1532694215.7,286046995.7,N
1532694235.5,286046995.1,N
1532694255.3,286046994.2,N
1532694275.2,286046994.5,N
1532694295.0,286046994.1,N
1532694295.9,286046994.1,N
1532694315.7,286046991.8,N
1532694335.6,286046992.4,N
1532694355.4,286046996.3,N
1532694375.3,286046994.9,N
1532694395.1,286046995.0,N
1532694396.0,286046995.0,N
1532694415.8,286046997.1,N
1532694435.7,286046995.1,N
1532694455.5,286046995.2,N
1532694475.3,286046995.5,N
1532694495.2,286046993.8,N
1532694515.0,286046996.4,N
1532694515.9,286046996.4,N
1532694535.8,286046993.5,N
1532694555.6,286046996.1,N
1532694575.4,286046995.1,N
1532694595.3,286046997.9,N
1532694615.1,286046999.3,N
1532694635.8,286047000.1,N
1532694655.7,286047001.9,N
1532694675.5,286047001.3,N
1532694695.4,286047002.6,N
1532694715.2,286047000.6,N
1532694735.0,286046999.8,N
1532694735.9,286046999.8,N
1532694755.8,286047002.7,N
1532694775.6,286047004.3,N
1532694795.5,286047001.9,N
1532694815.3,286047001.5,N
1532694835.1,286047002.1,N
1532694855.9,286047002.7,N
1532694875.7,286047002.1,N
1532694895.6,286047000.8,N
1532694915.4,286046999.6,N
1532694935.2,286046999.4,N
1532694955.1,286046999.4,N
1532694956.0,286046999.4,N
1532694975.8,286046997.4,N
1532694995.6,286046999.3,N
1532695015.5,286046998.5,N
1532695035.3,286047000.6,N
1532695055.2,286047000.6,N
1532695075.9,286046998.3,N
1532695095.7,286046996.6,N
1532695115.6,286046997.3,N
1532695135.4,286046997.9,N
1532695155.2,286046995.7,N
1532695175.1,286046997.3,N
1532695176.0,286046997.3,N
1532695195.8,286046996.9,N
1532695215.7,286046999.1,N
1532695235.5,286047011.9,Y
1532695255.3,286046999.1,P
1532695275.2,286046997.0,P
1532695295.0,286046996.2,P
1532695295.9,286046996.2,N
1532695315.8,286046995.6,N
1532695335.6,286046996.3,N
1532695355.4,286046992.1,Y
1532695375.3,286046999.5,P
1532695395.1,286046998.9,N
1532695415.8,286046997.6,N
1532695435.7,286046997.8,N
1532695455.5,286046997.2,Y
1532695505.4,286046999.2,E
1532695515.3,286046998.8,N
1532695535.1,286046999.3,P
1532695555.9,286046997.7,P
1532695575.7,286046997.6,Y
1532695595.6,286046998.8,P
1532695615.4,286046998.5,P
1532695635.2,286046998.6,P
1532695655.1,286046997.0,Y
1532695656.0,286046997.0,P
1532695675.8,286046998.5,N
1532695695.7,286046998.8,N
1532695715.5,286046998.9,N
1532695735.3,286046998.9,N
1532695755.2,286046996.6,Y
1532695775.0,286047001.2,P
1532695775.9,286047001.2,N
1532695795.7,286047001.2,N
1532695815.6,286046998.6,N
1532695835.4,286046998.9,N
1532695855.3,286046998.4,N
1532695875.1,286047001.2,N
1532695876.0,286047001.2,N
1532695895.8,286046998.5,N
1532695915.7,286047000.8,N
1532695935.5,286047000.7,N
1532695955.3,286047000.8,N
1532695975.2,286047001.1,N
1532695995.0,286047000.9,N
1532695995.9,286047000.9,N
1532696015.8,286047000.3,N
1532696035.6,286047000.9,N
1532696055.4,286047002.4,N
1532696075.3,286047000.2,N
1532696095.1,286047001.2,N
1532696115.9,286047001.1,N
1532696135.7,286047001.2,N
1532696155.5,286047001.0,N
1532696175.4,286047000.4,N
1532696195.2,286047001.0,N
1532696215.0,286047000.6,N
1532696215.9,286047000.6,N
1532696235.8,286047000.3,N
1532696255.6,286046998.7,N
1532696275.5,286046998.2,N
1532696295.3,286046998.4,N
1532696315.1,286047001.1,N
1532696335.9,286046998.1,N
1532696355.7,286047000.6,N
1532696375.5,286047000.4,N
1532696395.4,286046998.6,N
